TimeCDT,TemperatureF,Dew PointF,Humidity,Sea Level PressureIn,VisibilityMPH,Wind Direction,Wind SpeedMPH,Gust SpeedMPH,PrecipitationIn,Events,Conditions,WindDirDegrees,DateUTC
12:15 AM,77.5,77.5,100,29.94,10.0,East,6.9,-,N/A,,Scattered Clouds,100,2013-09-20 05:15:00
12:35 AM,77.5,77.5,100,29.94,10.0,ESE,4.6,-,N/A,,Clear,110,2013-09-20 05:35:00
12:55 AM,77.2,77.2,100,29.94,10.0,ESE,3.5,-,N/A,,Mostly Cloudy,110,2013-09-20 05:55:00
1:15 AM,77.0,77.0,100,29.94,10.0,East,3.5,-,N/A,Rain-Thunderstorm,Light Thunderstorms and Rain,100,2013-09-20 06:15:00
1:35 AM,77.5,77.5,100,29.95,1.5,SSW,5.8,-,0.22,Rain-Thunderstorm,Heavy Thunderstorms and Rain,200,2013-09-20 06:35:00
1:55 AM,76.1,76.1,100,29.94,2.0,East,3.5,-,0.44,Rain,Rain,90,2013-09-20 06:55:00
2:15 AM,76.1,76.1,100,29.94,10.0,SE,3.5,-,0.02,Rain-Thunderstorm,Light Thunderstorms and Rain,130,2013-09-20 07:15:00
2:35 AM,76.5,76.5,100,29.93,3.0,Calm,Calm,-,0.07,Rain,Light Rain,0,2013-09-20 07:35:00
2:55 AM,77.0,77.0,100,29.93,10.0,Calm,Calm,-,0.07,Rain-Thunderstorm,Light Thunderstorms and Rain,0,2013-09-20 07:55:00
3:15 AM,77.0,77.0,100,29.92,10.0,ENE,3.5,-,0.01,Rain,Light Rain,70,2013-09-20 08:15:00
3:35 AM,76.6,76.6,100,29.91,10.0,East,5.8,-,0.02,Rain-Thunderstorm,Light Thunderstorms and Rain,80,2013-09-20 08:35:00
3:55 AM,76.6,76.6,100,29.91,10.0,East,5.8,-,0.02,Rain-Thunderstorm,Light Thunderstorms and Rain,80,2013-09-20 08:55:00
4:15 AM,76.6,76.6,100,29.91,10.0,East,4.6,-,0.01,Rain-Thunderstorm,Light Thunderstorms and Rain,100,2013-09-20 09:15:00
4:35 AM,76.5,76.5,100,29.91,3.0,Calm,Calm,-,0.07,Rain-Thunderstorm,Thunderstorms and Rain,0,2013-09-20 09:35:00
4:55 AM,76.3,76.3,100,29.91,1.5,ENE,6.9,-,0.24,Rain-Thunderstorm,Heavy Thunderstorms and Rain,70,2013-09-20 09:55:00
5:15 AM,76.1,76.1,100,29.91,2.0,Calm,Calm,-,0.15,Rain-Thunderstorm,Heavy Thunderstorms and Rain,0,2013-09-20 10:15:00
5:35 AM,75.4,75.4,100,29.90,4.0,East,5.8,19.6,0.44,Rain-Thunderstorm,Rain,100,2013-09-20 10:35:00
5:55 AM,75.7,75.7,100,29.90,10.0,East,3.5,-,0.46,Rain-Thunderstorm,Light Thunderstorms and Rain,80,2013-09-20 10:55:00
6:15 AM,75.6,75.6,100,29.90,10.0,Calm,Calm,-,0.01,Rain-Thunderstorm,Light Thunderstorms and Rain,0,2013-09-20 11:15:00
6:35 AM,75.9,75.9,100,29.90,5.0,Calm,Calm,-,0.04,Rain-Thunderstorm,Heavy Thunderstorms and Rain,0,2013-09-20 11:35:00
6:50 AM,75.2,75.2,100,29.90,7.0,East,3.5,-,N/A,Thunderstorm,Thunderstorm,90,2013-09-20 11:50:00
6:55 AM,76.1,76.1,100,29.92,3.0,SSW,6.9,-,0.13,Rain-Thunderstorm,Heavy Thunderstorms and Rain,200,2013-09-20 11:55:00
7:58 AM,75.2,75.2,100,29.92,4.0,East,4.6,-,N/A,Rain-Thunderstorm,Light Thunderstorms and Rain,100,2013-09-20 12:58:00
8:50 AM,77.0,77.0,100,29.91,5.0,Calm,Calm,-,N/A,Rain-Thunderstorm,Light Thunderstorms and Rain,0,2013-09-20 13:50:00
10:58 AM,80.6,80.6,100,29.89,4.0,SE,8.1,-,N/A,Rain-Thunderstorm,Light Thunderstorms and Rain,130,2013-09-20 15:58:00
12:21 PM,80.6,80.6,100,29.87,5.0,SSE,8.1,-,N/A,Rain,Light Rain,150,2013-09-20 17:21:00
12:47 PM,80.6,80.6,100,29.87,2.0,SSE,8.1,-,N/A,Rain-Thunderstorm,Thunderstorms and Rain,150,2013-09-20 17:47:00
12:58 PM,80.6,80.6,100,29.87,6.0,SE,8.1,-,N/A,,Scattered Clouds,140,2013-09-20 17:58:00
1:58 PM,77.0,77.0,100,29.84,6.0,SSE,8.1,-,N/A,,Mostly Cloudy,160,2013-09-20 18:58:00
2:55 PM,78.8,78.8,100,29.84,5.0,SE,4.6,-,N/A,,Mostly Cloudy,140,2013-09-20 19:55:00
3:50 PM,80.6,80.6,100,29.80,4.0,SSE,20.7,256.6,N/A,Rain,Heavy Rain,160,2013-09-20 20:50:00
4:05 PM,78.8,78.8,100,29.80,7.0,SSE,6.9,-,N/A,Rain-Thunderstorm,Thunderstorms and Rain,150,2013-09-20 21:05:00
4:54 PM,78.8,78.8,100,29.81,5.0,SW,4.6,-,N/A,Rain-Thunderstorm,Light Thunderstorms and Rain,220,2013-09-20 21:54:00
5:49 PM,78.8,78.8,100,29.79,5.0,SSE,6.9,-,N/A,Rain-Thunderstorm,Heavy Thunderstorms and Rain,160,2013-09-20 22:49:00
6:50 PM,78.8,78.8,100,29.79,7.0,SE,8.1,-,N/A,Rain,Light Rain,140,2013-09-20 23:50:00
7:50 PM,78.8,78.8,100,29.78,7.0,SE,8.1,-,N/A,Rain,Light Rain,130,2013-09-21 00:50:00
8:50 PM,78.8,78.8,100,29.77,5.0,SSE,5.8,-,N/A,Rain,Light Rain,150,2013-09-21 01:50:00
9:50 PM,78.8,78.8,100,29.78,7.0,Calm,Calm,-,N/A,Rain,Light Rain,0,2013-09-21 02:50:00
10:55 PM,77.4,77.4,100,29.79,10.0,NNW,12.7,-,0.17,Thunderstorm,Thunderstorm,340,2013-09-21 03:55:00
11:15 PM,76.5,76.5,100,29.79,10.0,NNE,4.6,-,N/A,Thunderstorm,Thunderstorm,30,2013-09-21 04:15:00
11:35 PM,77.0,77.0,100,29.78,10.0,North,6.9,-,N/A,Rain-Thunderstorm,Light Thunderstorms and Rain,350,2013-09-21 04:35:00
11:55 PM,75.9,75.9,100,29.78,10.0,North,8.1,-,0.01,Rain-Thunderstorm,Light Thunderstorms and Rain,10,2013-09-21 04:55:00